www.pogodaiklimat.ru

Погода и климат >> Архив погоды >> Ирак >> Azizyah


ПОГОДА в Azizyah

  • Прогноз погоды в Azizyah
  • Монитор погоды в Azizyah
  • Климат города

АРХИВ ПОГОДЫ в Azizyah

Время (UTC), дата Ветер
(напр.,м/с)
 
Видим.   Явления Облачность Т
(С)
Тd
(С)
f
(%)
Тe
(С)
Тes
(С)
Комфортность P
(гПа)
Po
(гПа)
Тmin
(С)
Tmax
(С)
R
(мм)
R24
(мм)
S
(см)
03 14.10 Ю 1 10 км 4/0
[Ac lent]
+22.4 +9.9 45 +24 +24 комфорт 1013.3 1013.0
09 14.10 Ю 1 7000 м 9/9 900 м
[Cu Sc]
+36.4 +10.9 21 +35 +37 очень
жарко
1013.8 1014.0
12 14.10 штиль 0 6000 м пыль 9/9 900 м
[Cu Sc]
+37.0 +16.3 29 +39 +40 очень
душно
1012.2 1012.0
15 14.10 С 1 5000 м пыль 6/6 1050 м
[Sc]
+32.8 +14.0 32 +34 +34 очень
жарко
1011.7 1012.0
18 14.10 Ю 4 5000 м пыль 8/8 1050 м
[Sc]
+31.6 +11.9 30 +32 +32 жарко 1013.0 1013.0 +38.8
06 15.10 ЮВ 8 7000 м в посл. час дождь {гроза} 9/9 600 м
[Cb cap]
+25.0 +17.8 64 +29 +29 душно 1015.5 1016.0 +23.5 2
09 15.10 В 2 10 км 5/0
[Ci]
+29.8 +19.4 54 +36 +46 очень
душно
1014.9 1015.0
12 15.10 В 2 10 км 8/8 1050 м
[Sc]
+32.0 +19.9 49 +38 +39 очень
душно
1014.2 1014.0
15 15.10 В 1 10 км 9/9 900 м
[Cu Sc]
+29.0 +19.9 58 +35 +35 очень
душно
1014.1 1014.0
18 15.10 В 2 10 км 9/9 900 м
[Cu Sc]
+26.0 +18.1 62 +31 +31 очень
душно
1014.1 1014.0 +33.0
21 15.10 В 2 10 км 9/9 900 м
[Cu Sc]
+25.2 +16.8 60 +29 +29 душно 1014.5 1015.0
00 16.10 С 6 6000 м в посл. час дождь 9/8 300 м
[St Ac trans]
+25.0 +16.0 57 +28 +28 жарко 1013.6 1014.0
03 16.10 В 2 10 км 9/9 900 м
[Cu Sc]
+24.0 +17.6 67 +28 +28 душно 1014.4 1014.0
06 16.10 В 2 8000 м пыль {гроза, дождь} 9/9 900 м
[Cu Sc]
+26.6 +17.7 58 +31 +31 душно 1015.1 1015.0 +23.5 0.2
12 16.10 ЮВ 3 7000 м пыль 9/9 900 м
[Cu Sc]
+34.5 +16.5 34 +37 +38 очень
душно
1013.6 1014.0
15 16.10 ЮВ 1 7000 м пыль 6/6 900 м
[Cu Sc]
+32.4 +15.4 36 +35 +35 душно 1013.3 1013.0
21 16.10 СВ 2 10 км ясно +26.0 +13.6 46 +28 +28 жарко 1013.2 1013.0
00 17.10 штиль 0 10 км 6/6 1050 м
[Sc]
+23.2 +14.8 59 +27 +27 душно 1013.0 1013.0
06 17.10 штиль 0 10 км 4/0
[Ac trans]
+28.0 +14.8 44 +30 +35 жарко 1014.3 1014.0 +23.4
09 17.10 штиль 0 10 км 9/9 750 м
[Cu Sc]
+33.2 +17.3 39 +37 +38 очень
душно
1013.5 1014.0
12 17.10 штиль 0 10 км 8/8 750 м
[Cu Sc]
+35.0 +17.2 35 +38 +40 очень
душно
1012.0 1012.0
15 17.10 штиль 0 10 км 4/0
[Ac trans Ci fib]
+31.4 +15.0 37 +34 +34 душно 1011.6 1012.0
18 17.10 штиль 0 10 км ясно +28.0 +10.5 34 +29 +29 жарко 1012.0 1012.0 +35.6
21 17.10 Ю 2 10 км ясно +24.8 +10.4 40 +26 +26 жарко 1012.0 1012.0
00 18.10 ЮЗ 1 10 км 6/6 750 м
[Cu Sc]
+25.4 +13.9 49 +28 +28 жарко 1012.7 1013.0
09 18.10 Ю 3 8000 м пыль 6/6 900 м
[Cu hum]
+34.8 +16.3 33 +37 +41 очень
душно
1012.5 1013.0
12 18.10 Ю 1 8000 м пыль 9/9 900 м
[Cu Sc]
+34.2 +16.2 34 +37 +37 очень
душно
1011.4 1011.0
15 18.10 Ю 3 8000 м слабый дождь 9/9 900 м
[Cu Sc]
+31.8 +13.2 32 +33 +33 жарко 1011.5 1012.0
18 18.10 Ю 3 7000 м {дождь} 5/5 1050 м
[Sc]
+28.5 +14.0 41 +30 +30 жарко 1012.0 1012.0 +35.8 0.0
21 18.10 ЮВ 1 10 км 5/5 1050 м
[Sc]
+25.7 +14.9 51 +28 +28 жарко 1012.3 1012.0
03 19.10 Ю 2 10 км {дождь} 4/4 900 м
[Sc]
+25.2 +13.6 49 +27 +27 жарко 1013.8 1014.0
06 19.10 штиль 0 7000 м {дождь} 10/10 750 м
[Cu Sc]
+26.0 +16.6 56 +30 +30 душно 1015.4 1015.0 +25.0 0.6
09 19.10 С 1 10 км 9/9 900 м
[Cu Sc]
+30.0 +15.4 41 +33 +34 душно 1015.4 1015.0
12 19.10 СЗ 3 8000 м пыль 9/9 900 м
[Cu Sc]
+29.8 +17.6 48 +34 +34 очень
душно
1014.3 1014.0
15 19.10 С 3 10 км 9/9 900 м
[Cu Sc]
+27.2 +19.1 61 +32 +32 очень
душно
1014.1 1014.0
18 19.10 СЗ 2 10 км 4/0
[Ac trans]
+24.0 +15.7 60 +27 +27 жарко 1014.4 1014.0 +31.5
00 20.10 ЮЗ 2 10 км 4/0
[Ac trans]
+20.5 +15.4 73 +24 +24 комфорт 1015.1 1015.0
03 20.10 СВ 2 10 км 6/6 900 м
[Sc]
+19.0 +17.3 90 +21 +21 комфорт 1014.7 1015.0
06 20.10 ЮВ 2 10 км 9/9 900 м
[Cu Sc]
+22.8 +14.3 59 +26 +27 жарко 1015.7 1016.0 +18.5
09 20.10 Ю 4 10 км 9/9 900 м
[Cu Sc]
+28.0 +16.4 49 +31 +32 душно 1012.6 1013.0
12 20.10 Ю 3 10 км 8/8 900 м
[Cu Sc]
+29.7 +15.6 42 +32 +33 душно 1012.0 1012.0
15 20.10 Ю 2 10 км 8/8 900 м
[Cu Sc]
+26.8 +15.9 51 +30 +30 душно 1014.4 1014.0
18 20.10 Ю 1 10 км 3/0
[Ac trans]
+23.6 +16.8 66 +27 +27 жарко 1014.9 1015.0 +30.8
21 20.10 ЮВ 1 10 км ясно +21.8 +16.2 70 +26 +26 душно 1013.9 1014.0

 

Местоположение метеостанции Azizyah (Ирак): широта 32.92 долгота 45.07 высота над уровнем моря 25 м.

В архиве по умолчанию представлена погода в Azizyah за последнюю неделю. Архивные данные за месяц целиком и за предыдущие месяцы, начиная с января 2011 года, Вы можете получить, выбрав интересующий диапазон дат из раскрывающегося списка и нажав кнопку "Ввод!".


*Определитесь, кто Вы:
робот инопланетянин человек

Внимание! Время в таблицах - всемирное. Для получения местного времени необходимо прибавить поправку, которая в Azizyah равна 3 ч.

Смотрите также архив погоды в соседних городах и на ближайших метеорологических станциях:

Погода в Ayn Al-Tamar (Ирак) (77 км)
Погода в Hella (Ирак) (78 км)
Погода в Ubaydah Bin Al Jarrah (Ирак) (80 км)
Погода в Badrah (Ирак) (84 км)
Погода в Baghdad (Ирак) (86 км)
Погода в Karbalaa (Ирак) (104 км)
Погода в Diwaniya (Ирак) (105 км)
Погода в Al-Khalis (Ирак) (113 км)
Погода в Kut-Al-Hai (Ирак) (124 км)
Погода в Najaf (Ирак) (126 км)

Пояснения к столбцам:

Ветер - указаны скорость ветра в м/с - средняя за 10 мин, порывы в срок и между сроками (в фигурных скобках) и направление, откуда дует ветер: С - северный, СВ - северо-восточный, В - восточный, ЮВ - юго-восточный, Ю - южный, ЮЗ - юго-западный, З - западный, СЗ - северо-западный.
Видимость - горизонтальная дальность видимости в метрах или километрах. При видимости от 1 до 10 км при отсутствии осадков обычно наблюдается дымка, при ухудшении видимости до 1 км и менее - туман. В сухую погоду видимость может ухудшаться дымом, пылью или мглою.
Явления - указаны атмосферные явления, наблюдавшиеся в срок или в последний час перед сроком; фигурными скобками обозначены явления, наблюдавшиеся между сроками (за 1-3 часа до срока); квадратными скобками обозначены град или гололедные отложения с указанием их диаметра в мм.
Облачность - указаны через наклонную черту общая и нижняя облачность в баллах и высота нижней границы облаков в метрах; квадратными скобками обозначены формы облаков: Ci - перистые, Cs - перисто-слоистые, Cc - перисто-кучевые, Ac - высококучевые, As - высокослоистые, Sc - слоисто-кучевые, Ns - слоисто-дождевые, Cu - кучевые, Cb - кучево-дождевые. Подробнее классификацию облаков см. в Атласе облаков (PDF).
T - Температура воздуха - температура, измеренная на высоте 2 м над землей.
Td - Температура точки росы - температура, при понижении до которой содержащийся в воздухе водяной пар достигнет насыщения.
f - Относительная влажность воздуха - влажноcть воздуха, измеренная на высоте 2 м над землей.
Te - Эффективная температура - температура, которую ощущает одетый по сезону человек в тени. Характеристика душности погоды. При расчете учитывается влияние влажности воздуха и скорости ветра на теплоощущения человека.
Tes - Эффективная температура на солнце - температура, которую ощущает человек, с поправкой на солнечный нагрев. Характеристика знойности погоды. Зависит от высоты солнца над горизонтом, облачности и скорости ветра. Ночью, в пасмурную погоду, а также при ветре 12 м/с и более поправка равна нулю.
P - Атмосферное давление - приведенное к уровню моря атмосферное давление.
Po - Атмосферное давление - измеренное на уровне метеостанции атмосферное давление.
Tmin - Минимальная температура - минимум температуры воздуха на высоте 2 м над землей.
Tmax - Максимальная температура - максимум температуры воздуха на высоте 2 м над землей.
R - Количество осадков - Количество выпавших осадков за период времени, мм. При наведении курсора мыши на число - период времени, за который выпало указанное количество осадков.
R24 - Количество осадков - Количество выпавших осадков за 24 часа, мм.
S - Снежный покров - Высота снежного покрова, см. При наведении курсора мыши на число - состояние снежного покрова и степень покрытия местности в баллах.